Погода в Таллахасси

США     30°26′16″N   84°16′50″W
темп.,
°C
ветер,
м/с
пор.,
м/с
влажн.,
%
обл.,
%
осадки,
мм/ч
давл.,
гПа
погр.,
м
20 апреля, вт
вт2023:00+15с1161100 0.0 101511
02:00+14с1163100 0.0 101511
05:00+16всв1155100 0.0 101512
08:00+15св2263100 0.0 101663
11:00+21всв2242100 0.0 1017657
14:00+26в113526 0.0 10151398
17:00+24в22420 0.0 10131012
20:00+19св11635 0.0 101411
21 апреля, ср
ср2123:00+17ссз226688 0.0 101535
02:00+15сз22660 0.0 101631
05:00+14сз23740 0.0 101559
08:00+14сз28740 0.0 1017207
11:00+22сз46483 0.0 1018966
14:00+25сз57402 0.0 10171978
17:00+23сз57451 0.0 10171715
20:00+18ссз49590 0.0 1018607
22 апреля, чт
чт2223:00+13с310535 0.0 1021395
02:00+11с310480 0.0 1021385
05:00+9ссв3105126 0.0 1021349
08:00+9св39530 0.0 1023412
11:00+16ссв45320 0.0 1024817
14:00+20ссв33270 0.0 10221209
17:00+21с34300 0.0 10211325
20:00+15ссв22560 0.0 102231
23 апреля, пт
пт2323:00+13св22540 0.0 102316
02:00+12всв22555 0.0 102228
05:00+10всв236055 0.0 102146
08:00+11всв256430 0.0 1022133
11:00+20в3543100 0.0 1023794
14:00+24вюв2435100 0.0 10201330
17:00+23ю1240100 0.0 1018963
20:00+19юз1162100 0.0 101911
24 апреля, сб
сб2423:00+18в2360100 0.0 101752
02:00+18вюв2761100 0.0 1016220
05:00+18юв31182100 0.0 1014501
08:00+19юв4128845 0.1 1014741
11:00+25ю7127271 0.3 10151203
14:00+25ю61179100 1.4 10141106
17:00+25ю61376100 0.1 10101209
20:00+22ююз51393100 2.1 1011974